Preview of NWS' New Version of Forecast
This preview is not operational and should not be used for support decisions.

Regional Weather Roundup (RWR)

Issued by National Weather Service (NWS)

                            
000
ASUS42 KTBW 172217
RWRFL 
FLORIDA REGIONAL WEATHER ROUNDUP
NATIONAL WEATHER SERVICE TAMPA BAY RUSKIN FL
500 PM EST SUN FEB 17 2019

NOTE: "FAIR" INDICATES FEW OR NO CLOUDS BELOW 12,000 FEET WITH NO
SIGNIFICANT WEATHER AND/OR OBSTRUCTIONS TO VISIBILITY.

FLZ001>010-012>015-112-114-115-172300-
PANHANDLE FLORIDA
  
CITY           SKY/WX    TMP DP  RH WIND       PRES   REMARKS
PENSACOLA      CLOUDY    73  68  84 S10       29.84F                  
PENSACOLA NAS  PTSUNNY   72  69  90 S12       29.84S                  
MILTON NAS     CLOUDY    75  71  87 S10       29.84                   
CRESTVIEW      CLOUDY    73  69  87 S9        29.86S                  
DUKE FIELD     CLOUDY    72  70  94 S12       29.85S                  
VALPARAISO     CLOUDY    69  69 100 S10       29.84F                  
MARY ESTHER    PTSUNNY   68  66  94 S9        29.84                   
PANAMA CITY    CLOUDY    72  68  87 SE12      29.86S                  
TYNDALL AFB    CLOUDY    72  68  86 S18       29.87S                  
APALACHICOLA   PTSUNNY   70  65  84 S13       29.90S                  

STATION/POSITION SKY/WX   TEMP    WIND        PRES    WAVE   SWELL
                          AIR SEA DIR/SP/G            HT/PER HT/PER
                          (F)     (DEG/KT/KT) (MB)    (FT/S) (FT/S)
30.1N   87.6W              68     100/  4/  6   N/A     2/ 6   2/ 6
29.2N   88.2W                     190/ 10/ 14 1010.2
PANAMA CITY BEAC           65 63  140/ 12/ 13 1011.7R
TOWER C                    68     150/ 15/ 16 1012.5F

$$
FLZ011-016>038-118-127-128-134-139-239-172300-
NORTH FLORIDA
  
CITY           SKY/WX    TMP DP  RH WIND       PRES   REMARKS
MARIANNA       LGT RAIN  76  69  79 SW10      29.85S                  
TALLAHASSEE    PTSUNNY   74  67  78 S9        29.90S                  
PERRY          PTSUNNY   77  65  65 SW14G21   29.94R                  
LIVE OAK       CLOUDY    77  64  65 VRB7G13   29.92S                  
CROSS CITY     CLOUDY    76  67  72 S9        29.94S                  
LAKE CITY      CLOUDY    77  63  61 S9        29.94S                  
GAINESVILLE    FAIR      82  65  56 SW13G21   29.96S                  
WILLISTON        N/A    N/A N/A N/A MISG        N/A                   
PALATKA        CLOUDY    81  63  54 SW3       29.94R                  
MAYPORT NAS    PTSUNNY   64  62  93 E8        29.95S                  
JACKSONVILLE   PTSUNNY   74  65  73 SE8       29.93S                  
JAX NAS        PTSUNNY   77  66  68 E8        29.94S                  
JAX CECIL      MOSUNNY   81  68  65 VRB5      29.93S                  
FERNANDINA BEA PTSUNNY   66  62  89 SE8       29.95S                  
ST AUGUSTINE   FAIR      70  63  78 SE9       29.95F                  
PALM COAST     MOSUNNY   73  64  73 E8        29.94S                  

STATION/POSITION SKY/WX   TEMP    WIND        PRES    WAVE   SWELL
                          AIR SEA DIR/SP/G            HT/PER HT/PER
                          (F)     (DEG/KT/KT) (MB)    (FT/S) (FT/S)
SHELL POINT      NOT AVBL
KEATON BEACH               70     170/ 14/ 16 1014.0R
CEDAR KEY                  70     200/ 13/ 15 1014.4R
FERNANDINA                 68 60  110/  5/ 10 1014.8S
30.7N   81.3W                 60                N/A     2/ 6
MAYPORT                    64 60   90/  6/  8 1014.3R
31.4N   80.9W              60 58  130/ 10/ 10 1014.0F   3/ 6   3/ 6
ST AUGUSTINE               64 60  160/  7/  7 1014.2F

$$
FLZ040-043>046-052-053-057-058-063-144-172300-
INTERIOR CENTRAL FLORIDA
  
CITY           SKY/WX    TMP DP  RH WIND       PRES   REMARKS
OCALA          FAIR      82  66  58 SW12      29.94S                  
LEESBURG       PTSUNNY   80  62  54 SW7       29.94S                  
SANFORD        FAIR      85  64  49 S8        29.94S                  
ORLANDO EXEC   FAIR      84  63  49 S7        29.94S                  
ORLANDO INTL   FAIR      84  63  49 S10       29.95S                  
KISSIMMEE      FAIR      84  65  52 S7        29.96S                  
WINTER HAVEN   FAIR      87  64  46 SW12      29.96S                  
LAKELAND       MOSUNNY   84  64  51 SW18      29.95S                  
SEBRING        FAIR      84  65  52 S9        29.95S                  
OKEECHOBEE     FAIR      82  64  54 S7        29.95F                  

$$
FLZ041-047-054-059-064-141-147-172300-
EAST CENTRAL FLORIDA
  
CITY           SKY/WX    TMP DP  RH WIND       PRES   REMARKS
ORMOND BEACH   MOSUNNY   75  64  69 E12       29.94S                  
DAYTONA BEACH  FAIR      82  66  58 SW6       29.94S                  
DELAND         FAIR      84  63  48 SW9       29.94S                  
NEW SMYRNA BEA MOSUNNY   75  64  69 SE12      29.96S                  
JFK SPACE CTR  FAIR      78  67  68 S12       29.95S                  
TITUSVILLE     MOSUNNY   81  66  61 SE8       29.96S                  
CAPE CANAVERAL FAIR      76  67  75 SE12      29.95S                  
PATRICK AFB    FAIR      73  70  88 SE15      29.96R                  
MELBOURNE      FAIR      80  67  64 SE8       29.95S                  
VERO BEACH     FAIR      79  68  69 SE16      29.96F                  
FT PIERCE      FAIR      80  68  66 SE13      29.96S                  

STATION/POSITION SKY/WX   TEMP    WIND        PRES    WAVE   SWELL
                          AIR SEA DIR/SP/G            HT/PER HT/PER
                          (F)     (DEG/KT/KT) (MB)    (FT/S) (FT/S)
28.5N   80.2W              72     160/  8/  8 1015.2
28.9N   78.5W              76 76  190/ 12/ 14 1016.6R   2/ 8   2/ 8
TRIDENT PIER               72 66  140/  7/ 11 1015.7S
28.4N   80.5W                 66                N/A     1/ 8

$$
FLZ050-056-061-142-242-148-248-149-249-151-251-155-255-
160-260-172300-
WEST CENTRAL FLORIDA
  
CITY           SKY/WX    TMP DP  RH WIND       PRES   REMARKS
CRYSTAL RIVER  FAIR      79  68  69 SW8G17    29.95S                  
INVERNESS      FAIR      81  68  65 SW3       29.94S                  
BROOKSVILLE    FAIR      83  64  52 S16       29.95S                  
CLEARWATER AIR FAIR      77  64  65 S14G22    29.95S                  
ST PETE CLEARW FAIR      79  65  62 S18G25    29.95S                  
TAMPA INTL     FAIR      78  68  71 SW14      29.95S                  
TAMPA EXEC     FAIR      81  68  65 SW9G17    29.95S                  
PLANT CITY     FAIR      82  64  54 S10       29.97R                  
MACDILL AFB    FAIR      76  68  76 SW16      29.95R                  
PETER O KNIGHT CLOUDY    81  70  69 SW10      29.95S                  
ST PETERSBURG  FAIR      78  67  68 S14G21    29.93S                  
SARASOTA       FAIR      79  70  74 S17       29.94S                  
VENICE         FAIR      77  72  83 S14       29.97R                  

STATION/POSITION SKY/WX   TEMP    WIND        PRES    WAVE   SWELL
                          AIR SEA DIR/SP/G            HT/PER HT/PER
                          (F)     (DEG/KT/KT) (MB)    (FT/S) (FT/S)
27.3N   84.2W                 72                N/A     3/ 5
CLEARWATER BEACH           76 69  170/ 14/ 17 1014.2S
MIDDLE TAMPA BAY           74     210/ 14/ 16 1014.3R
VENICE                     71 67  160/ 11/ 11   N/A

$$
FLZ066-069-070-075>078-162-262-165-265-172300-
SOUTHWEST FLORIDA AND KEYS
  
CITY           SKY/WX    TMP DP  RH WIND       PRES   REMARKS
PUNTA GORDA    FAIR      82  61  48 S12       29.97S                  
FT MYERS       FAIR      81  65  58 S12       29.95R                  
SOUTHWEST INTL FAIR      82  62  50 S15       29.96R                  
NAPLES         FAIR      82  65  56 S14       29.96R                  
MARCO ISLAND   FAIR      79  71  76 S13       29.97S                  
IMMOKALEE      FAIR      84  63  48 S8G16     29.94S                  
MARATHON       FAIR      83  71  67 SE10      29.97S                  
KEY WEST NAS   FAIR      82  70  66 SE14      29.95F                  
KEY WEST INTL  FAIR      81  71  71 SE12      29.96S                  

STATION/POSITION SKY/WX   TEMP    WIND        PRES    WAVE   SWELL
                          AIR SEA DIR/SP/G            HT/PER HT/PER
                          (F)     (DEG/KT/KT) (MB)    (FT/S) (FT/S)
NAPLES                     77 72  160/ 11/ 17 1014.4R
26.0N   85.6W              79 80  180/ 17/ 23 1011.6
DRY TORTUGAS               78     150/ 14/ 15 1013.4F
SAND KEY                   77                 1014.3F
SOMBRERO KEY               78                 1014.2F
LONG KEY                   79 78  140/ 10/ 12 1014.7F
MOLASSES REEF              78 78  170/ 14/ 16 1015.7S

$$
FLZ067-068-071>074-168-172>174-172300-
SOUTHEAST FLORIDA 
  
CITY           SKY/WX    TMP DP  RH WIND       PRES   REMARKS
W PALM BEACH   FAIR      80  66  62 S15G24    29.99R                  
BOCA RATON     MOSUNNY   81  68  65 SE12G18   29.99R                  
FT LAUDER-EXEC FAIR      81  71  71 SE14      29.98R                  
FT LAUDERDALE  FAIR      81  72  74 S14       29.98R                  
POMPANO BEACH  FAIR      80  70  71 SE15      29.99R                  
PEMBROKE PINES FAIR      82  67  60 S13       29.99S                  
OPA LOCKA      FAIR      82  68  62 S16       29.99S                  
MIAMI          FAIR      81  70  69 S13G21    29.99R                  
WEST KENDALL   FAIR      82  69  64 S13G18    29.98R                  
HOMESTEAD      PTSUNNY   82  71  68 S7        29.98R                  

STATION/POSITION SKY/WX   TEMP    WIND        PRES    WAVE   SWELL
                          AIR SEA DIR/SP/G            HT/PER HT/PER
                          (F)     (DEG/KT/KT) (MB)    (FT/S) (FT/S)
PORT EVERGLADES            79     170/  8/ 12 1015.6
VIRGINIA KEY               79 78  150/ 10/ 12 1015.0R
LAKE WORTH                 77 77  200/ 16/ 19 1016.6R
FOWEY ROCKS                78 77  160/ 14/ 16 1016.2R
SETTLEMENT POINT           78     180/ 10/ 12 1016.7R

$$